Time,TemperatureF,DewpointF,PressureIn,WindDirection,WindDirectionDegrees,WindSpeedMPH,WindSpeedGustMPH,Humidity,HourlyPrecipIn,Conditions,Clouds,dailyrainin,SoftwareType,DateUTC
2013-05-16 00:02:00,65.1,36.1,29.89,North,0,0.0,0.0,34,0.00,,---,0.00,VWS V13.01,2013-05-16 05:02:00,
2013-05-16 00:08:00,64.9,35.9,29.89,North,0,0.0,0.0,34,0.00,,---,0.00,VWS V13.01,2013-05-16 05:08:00,
2013-05-16 00:13:00,64.9,35.9,29.89,North,0,0.0,0.0,34,0.00,,---,0.00,VWS V13.01,2013-05-16 05:13:00,
2013-05-16 00:18:00,64.8,35.8,29.89,North,0,0.0,0.0,34,0.00,,---,0.00,VWS V13.01,2013-05-16 05:18:00,
2013-05-16 00:24:00,64.6,35.6,29.89,North,0,0.0,0.0,34,0.00,,---,0.00,VWS V13.01,2013-05-16 05:24:00,
2013-05-16 00:30:00,64.6,35.6,29.89,North,0,0.0,0.0,34,0.00,,---,0.00,VWS V13.01,2013-05-16 05:30:00,
2013-05-16 00:35:00,64.4,35.5,29.89,North,0,0.0,0.0,34,0.00,,---,0.00,VWS V13.01,2013-05-16 05:35:00,
2013-05-16 00:41:00,64.4,35.5,29.89,North,0,0.0,0.0,34,0.00,,---,0.00,VWS V13.01,2013-05-16 05:41:00,
2013-05-16 00:47:00,64.2,36.0,29.89,North,0,0.0,0.0,35,0.00,,---,0.00,VWS V13.01,2013-05-16 05:47:00,
2013-05-16 00:53:00,64.0,35.9,29.89,North,0,0.0,0.0,35,0.00,,---,0.00,VWS V13.01,2013-05-16 05:53:00,
2013-05-16 00:59:00,64.0,35.9,29.89,North,0,0.0,0.0,35,0.00,,---,0.00,VWS V13.01,2013-05-16 05:59:00,
2013-05-16 01:04:00,63.9,35.7,29.89,North,0,0.0,0.0,35,0.00,,---,0.00,VWS V13.01,2013-05-16 06:04:00,
2013-05-16 01:10:00,63.9,35.7,29.89,North,0,0.0,0.0,35,0.00,,---,0.00,VWS V13.01,2013-05-16 06:10:00,
2013-05-16 01:15:00,63.7,35.5,29.89,North,0,0.0,0.0,35,0.00,,---,0.00,VWS V13.01,2013-05-16 06:15:00,
2013-05-16 01:20:00,63.5,35.4,29.89,North,0,0.0,0.0,35,0.00,,---,0.00,VWS V13.01,2013-05-16 06:20:00,
2013-05-16 01:25:00,63.5,35.4,29.89,North,0,0.0,0.0,35,0.00,,---,0.00,VWS V13.01,2013-05-16 06:25:00,
2013-05-16 01:30:00,63.5,34.7,29.89,North,0,0.0,0.0,34,0.00,,---,0.00,VWS V13.01,2013-05-16 06:30:00,
2013-05-16 01:36:00,63.3,34.5,29.89,North,0,0.0,0.0,34,0.00,,---,0.00,VWS V13.01,2013-05-16 06:36:00,
2013-05-16 01:41:00,63.1,34.3,29.89,North,0,0.0,0.0,34,0.00,,---,0.00,VWS V13.01,2013-05-16 06:41:00,
2013-05-16 01:46:00,63.1,34.3,29.89,North,0,0.0,0.0,34,0.00,,---,0.00,VWS V13.01,2013-05-16 06:46:00,
2013-05-16 01:51:00,63.0,34.2,29.89,North,0,0.0,0.0,34,0.00,,---,0.00,VWS V13.01,2013-05-16 06:51:00,
2013-05-16 01:57:00,63.0,34.2,29.89,North,0,0.0,0.0,34,0.00,,---,0.00,VWS V13.01,2013-05-16 06:57:00,
2013-05-16 02:02:00,62.8,34.0,29.89,North,0,0.0,0.0,34,0.00,,---,0.00,VWS V13.01,2013-05-16 07:02:00,
2013-05-16 02:08:00,62.8,34.0,29.89,North,0,0.0,0.0,34,0.00,,---,0.00,VWS V13.01,2013-05-16 07:08:00,
2013-05-16 02:13:00,62.6,33.9,29.89,North,0,0.0,0.0,34,0.00,,---,0.00,VWS V13.01,2013-05-16 07:13:00,
2013-05-16 02:19:00,62.6,33.9,29.89,North,0,0.0,0.0,34,0.00,,---,0.00,VWS V13.01,2013-05-16 07:19:00,
2013-05-16 02:24:00,62.4,34.4,29.89,North,0,0.0,0.0,35,0.00,,---,0.00,VWS V13.01,2013-05-16 07:24:00,
2013-05-16 02:30:00,62.4,34.4,29.89,North,0,0.0,0.0,35,0.00,,---,0.00,VWS V13.01,2013-05-16 07:30:00,
2013-05-16 02:36:00,62.2,34.3,29.89,North,0,0.0,0.0,35,0.00,,---,0.00,VWS V13.01,2013-05-16 07:36:00,
2013-05-16 02:41:00,62.2,34.3,29.89,North,0,0.0,0.0,35,0.00,,---,0.00,VWS V13.01,2013-05-16 07:41:00,
2013-05-16 02:47:00,62.2,34.3,29.89,North,0,0.0,0.0,35,0.00,,---,0.00,VWS V13.01,2013-05-16 07:47:00,
2013-05-16 02:53:00,62.1,34.1,29.89,North,0,0.0,0.0,35,0.00,,---,0.00,VWS V13.01,2013-05-16 07:53:00,
2013-05-16 02:59:00,62.1,34.1,29.89,North,0,0.0,0.0,35,0.00,,---,0.00,VWS V13.01,2013-05-16 07:59:00,
2013-05-16 03:05:00,61.9,34.0,29.89,North,0,0.0,0.0,35,0.00,,---,0.00,VWS V13.01,2013-05-16 08:05:00,
2013-05-16 03:10:00,61.9,34.0,29.89,North,0,0.0,0.0,35,0.00,,---,0.00,VWS V13.01,2013-05-16 08:10:00,
2013-05-16 03:16:00,61.9,34.0,29.89,North,0,0.0,0.0,35,0.00,,---,0.00,VWS V13.01,2013-05-16 08:16:00,
2013-05-16 03:21:00,61.9,34.0,29.89,North,0,0.0,0.0,35,0.00,,---,0.00,VWS V13.01,2013-05-16 08:21:00,
2013-05-16 03:26:00,61.7,33.8,29.89,North,0,0.0,0.0,35,0.00,,---,0.00,VWS V13.01,2013-05-16 08:26:00,
2013-05-16 03:32:00,61.7,33.8,29.89,North,0,0.0,0.0,35,0.00,,---,0.00,VWS V13.01,2013-05-16 08:32:00,
2013-05-16 03:38:00,61.7,33.8,29.89,North,0,0.0,0.0,35,0.00,,---,0.00,VWS V13.01,2013-05-16 08:38:00,
2013-05-16 03:43:00,61.5,33.6,29.89,North,0,0.0,0.0,35,0.00,,---,0.00,VWS V13.01,2013-05-16 08:43:00,
2013-05-16 03:49:00,61.5,33.6,29.89,North,0,0.0,0.0,35,0.00,,---,0.00,VWS V13.01,2013-05-16 08:49:00,
2013-05-16 03:54:00,61.3,33.5,29.89,North,0,0.0,0.0,35,0.00,,---,0.00,VWS V13.01,2013-05-16 08:54:00,
2013-05-16 03:59:00,61.3,33.5,29.89,North,0,0.0,0.0,35,0.00,,---,0.00,VWS V13.01,2013-05-16 08:59:00,
2013-05-16 04:04:00,61.3,33.5,29.89,North,0,0.0,0.0,35,0.00,,---,0.00,VWS V13.01,2013-05-16 09:04:00,
2013-05-16 04:09:00,61.3,33.5,29.89,North,0,0.0,0.0,35,0.00,,---,0.00,VWS V13.01,2013-05-16 09:09:00,
2013-05-16 04:15:00,61.2,33.3,29.89,North,0,0.0,0.0,35,0.00,,---,0.00,VWS V13.01,2013-05-16 09:15:00,
2013-05-16 04:21:00,61.2,33.3,29.89,North,0,0.0,0.0,35,0.00,,---,0.00,VWS V13.01,2013-05-16 09:21:00,
2013-05-16 04:27:00,61.0,33.2,29.89,North,0,0.0,0.0,35,0.00,,---,0.00,VWS V13.01,2013-05-16 09:27:00,
2013-05-16 04:32:00,61.0,33.2,29.89,North,0,0.0,0.0,35,0.00,,---,0.00,VWS V13.01,2013-05-16 09:32:00,
2013-05-16 04:37:00,61.0,33.2,29.89,North,0,0.0,0.0,35,0.00,,---,0.00,VWS V13.01,2013-05-16 09:37:00,
2013-05-16 04:43:00,61.0,33.2,29.89,North,0,0.0,0.0,35,0.00,,---,0.00,VWS V13.01,2013-05-16 09:43:00,
2013-05-16 04:48:00,60.8,33.0,29.89,North,0,0.0,0.0,35,0.00,,---,0.00,VWS V13.01,2013-05-16 09:48:00,
2013-05-16 04:53:00,60.8,33.0,29.89,North,0,0.0,0.0,35,0.00,,---,0.00,VWS V13.01,2013-05-16 09:53:00,
2013-05-16 04:59:00,60.6,32.8,29.89,North,0,0.0,0.0,35,0.00,,---,0.00,VWS V13.01,2013-05-16 09:59:00,
2013-05-16 05:05:00,60.6,32.8,29.89,North,0,0.0,0.0,35,0.00,,---,0.00,VWS V13.01,2013-05-16 10:05:00,
2013-05-16 05:10:00,60.6,32.8,29.89,North,0,0.0,0.0,35,0.00,,---,0.00,VWS V13.01,2013-05-16 10:10:00,
2013-05-16 05:15:00,60.4,32.7,29.89,North,0,0.0,0.0,35,0.00,,---,0.00,VWS V13.01,2013-05-16 10:15:00,
2013-05-16 05:20:00,60.4,32.7,29.89,North,0,0.0,0.0,35,0.00,,---,0.00,VWS V13.01,2013-05-16 10:20:00,
2013-05-16 05:26:00,60.4,32.7,29.89,North,0,0.0,0.0,35,0.00,,---,0.00,VWS V13.01,2013-05-16 10:26:00,
2013-05-16 05:31:00,60.4,32.7,29.89,North,0,0.0,0.0,35,0.00,,---,0.00,VWS V13.01,2013-05-16 10:31:00,
2013-05-16 05:37:00,60.3,32.5,29.89,North,0,0.0,0.0,35,0.00,,---,0.00,VWS V13.01,2013-05-16 10:37:00,
2013-05-16 05:42:00,60.3,32.5,29.89,North,0,0.0,0.0,35,0.00,,---,0.00,VWS V13.01,2013-05-16 10:42:00,
2013-05-16 05:48:00,60.3,32.5,29.89,North,0,0.0,0.0,35,0.00,,---,0.00,VWS V13.01,2013-05-16 10:48:00,
2013-05-16 05:53:00,60.1,32.4,29.89,North,0,0.0,0.0,35,0.00,,---,0.00,VWS V13.01,2013-05-16 10:53:00,
2013-05-16 05:58:00,60.1,32.4,29.89,North,0,0.0,0.0,35,0.00,,---,0.00,VWS V13.01,2013-05-16 10:58:00,
2013-05-16 06:03:00,60.1,32.4,29.92,North,0,0.0,0.0,35,0.00,,---,0.00,VWS V13.01,2013-05-16 11:03:00,
2013-05-16 06:08:00,59.9,32.2,29.92,North,0,0.0,0.0,35,0.00,,---,0.00,VWS V13.01,2013-05-16 11:08:00,
2013-05-16 06:14:00,59.9,32.2,29.92,North,0,0.0,0.0,35,0.00,,---,0.00,VWS V13.01,2013-05-16 11:14:00,
2013-05-16 06:19:00,59.9,32.2,29.92,North,0,0.0,0.0,35,0.00,,---,0.00,VWS V13.01,2013-05-16 11:19:00,
2013-05-16 06:25:00,59.7,32.0,29.92,North,0,0.0,0.0,35,0.00,,---,0.00,VWS V13.01,2013-05-16 11:25:00,
2013-05-16 06:30:00,59.7,32.0,29.92,North,0,0.0,0.0,35,0.00,,---,0.00,VWS V13.01,2013-05-16 11:30:00,
2013-05-16 06:36:00,59.7,32.0,29.92,North,0,0.0,0.0,35,0.00,,---,0.00,VWS V13.01,2013-05-16 11:36:00,
2013-05-16 06:42:00,59.5,31.9,29.92,North,0,0.0,0.0,35,0.00,,---,0.00,VWS V13.01,2013-05-16 11:42:00,
2013-05-16 06:47:00,59.5,31.9,29.92,North,0,0.0,0.0,35,0.00,,---,0.00,VWS V13.01,2013-05-16 11:47:00,
2013-05-16 06:53:00,59.5,31.9,29.92,North,0,0.0,0.0,35,0.00,,---,0.00,VWS V13.01,2013-05-16 11:53:00,
2013-05-16 06:58:00,59.5,31.9,29.92,North,0,0.0,0.0,35,0.00,,---,0.00,VWS V13.01,2013-05-16 11:58:00,
2013-05-16 07:04:00,59.5,31.9,29.92,North,0,0.0,0.0,35,0.00,,---,0.00,VWS V13.01,2013-05-16 12:04:00,
2013-05-16 07:09:00,59.5,31.9,29.92,North,0,0.0,0.0,35,0.00,,---,0.00,VWS V13.01,2013-05-16 12:09:00,
2013-05-16 07:15:00,59.5,31.9,29.92,North,0,0.0,0.0,35,0.00,,---,0.00,VWS V13.01,2013-05-16 12:15:00,
2013-05-16 07:20:00,59.5,31.9,29.92,North,0,0.0,0.0,35,0.00,,---,0.00,VWS V13.01,2013-05-16 12:20:00,
2013-05-16 07:26:00,59.5,31.9,29.92,North,0,0.0,0.0,35,0.00,,---,0.00,VWS V13.01,2013-05-16 12:26:00,
2013-05-16 07:32:00,59.5,31.9,29.92,North,0,0.0,0.0,35,0.00,,---,0.00,VWS V13.01,2013-05-16 12:32:00,
2013-05-16 07:38:00,59.5,31.9,29.92,North,0,0.0,0.0,35,0.00,,---,0.00,VWS V13.01,2013-05-16 12:38:00,
2013-05-16 07:44:00,59.7,32.0,29.92,North,0,0.0,0.0,35,0.00,,---,0.00,VWS V13.01,2013-05-16 12:44:00,
2013-05-16 07:49:00,59.7,32.0,29.95,North,0,0.0,0.0,35,0.00,,---,0.00,VWS V13.01,2013-05-16 12:49:00,
2013-05-16 07:54:00,59.7,32.0,29.95,North,0,0.0,0.0,35,0.00,,---,0.00,VWS V13.01,2013-05-16 12:54:00,
2013-05-16 07:59:00,59.7,32.0,29.95,North,0,0.0,0.0,35,0.00,,---,0.00,VWS V13.01,2013-05-16 12:59:00,
2013-05-16 08:04:00,59.7,32.0,29.95,North,0,0.0,0.0,35,0.00,,---,0.00,VWS V13.01,2013-05-16 13:04:00,
2013-05-16 08:10:00,59.7,32.0,29.95,North,0,0.0,0.0,35,0.00,,---,0.00,VWS V13.01,2013-05-16 13:10:00,
2013-05-16 08:16:00,59.9,32.2,29.95,North,0,0.0,0.0,35,0.00,,---,0.00,VWS V13.01,2013-05-16 13:16:00,
2013-05-16 08:21:00,59.9,32.2,29.95,North,0,0.0,0.0,35,0.00,,---,0.00,VWS V13.01,2013-05-16 13:21:00,
2013-05-16 08:26:00,60.1,32.4,29.95,North,0,0.0,0.0,35,0.00,,---,0.00,VWS V13.01,2013-05-16 13:26:00,
2013-05-16 08:31:00,60.1,32.4,29.95,North,0,0.0,0.0,35,0.00,,---,0.00,VWS V13.01,2013-05-16 13:31:00,
2013-05-16 08:36:00,60.1,32.4,29.95,North,0,0.0,0.0,35,0.00,,---,0.00,VWS V13.01,2013-05-16 13:36:00,
2013-05-16 08:42:00,60.3,32.5,29.95,North,0,0.0,0.0,35,0.00,,---,0.00,VWS V13.01,2013-05-16 13:42:00,
2013-05-16 08:47:00,60.4,32.7,29.95,North,0,0.0,0.0,35,0.00,,---,0.00,VWS V13.01,2013-05-16 13:47:00,
2013-05-16 08:53:00,60.4,33.4,29.95,North,0,0.0,0.0,36,0.00,,---,0.00,VWS V13.01,2013-05-16 13:53:00,
2013-05-16 08:59:00,60.6,33.5,29.95,North,0,0.0,0.0,36,0.00,,---,0.00,VWS V13.01,2013-05-16 13:59:00,
2013-05-16 09:05:00,60.8,33.0,29.95,North,0,0.0,0.0,35,0.00,,---,0.00,VWS V13.01,2013-05-16 14:05:00,
2013-05-16 09:10:00,61.0,33.2,29.95,North,0,0.0,0.0,35,0.00,,---,0.00,VWS V13.01,2013-05-16 14:10:00,
2013-05-16 09:15:00,61.2,33.3,29.95,North,0,0.0,0.0,35,0.00,,---,0.00,VWS V13.01,2013-05-16 14:15:00,
2013-05-16 09:20:00,61.3,33.5,29.95,North,0,0.0,0.0,35,0.00,,---,0.00,VWS V13.01,2013-05-16 14:20:00,
2013-05-16 09:26:00,61.5,33.6,29.95,North,0,0.0,0.0,35,0.00,,---,0.00,VWS V13.01,2013-05-16 14:26:00,
2013-05-16 09:31:00,61.7,33.8,29.95,North,0,0.0,0.0,35,0.00,,---,0.00,VWS V13.01,2013-05-16 14:31:00,
2013-05-16 09:37:00,61.9,34.7,29.95,North,0,0.0,0.0,36,0.00,,---,0.00,VWS V13.01,2013-05-16 14:37:00,
2013-05-16 09:43:00,62.2,35.0,29.95,North,0,0.0,0.0,36,0.00,,---,0.00,VWS V13.01,2013-05-16 14:43:00,
2013-05-16 09:48:00,62.4,35.1,29.95,North,0,0.0,0.0,36,0.00,,---,0.00,VWS V13.01,2013-05-16 14:48:00,
2013-05-16 09:53:00,62.8,34.8,29.95,North,0,0.0,0.0,35,0.00,,---,0.00,VWS V13.01,2013-05-16 14:53:00,
2013-05-16 09:58:00,63.0,34.9,29.95,North,0,0.0,0.0,35,0.00,,---,0.00,VWS V13.01,2013-05-16 14:58:00,
2013-05-16 10:03:00,63.1,35.8,29.95,North,0,0.0,0.0,36,0.00,,---,0.00,VWS V13.01,2013-05-16 15:03:00,
2013-05-16 10:09:00,63.5,36.1,29.95,North,0,0.0,0.0,36,0.00,,---,0.00,VWS V13.01,2013-05-16 15:09:00,
2013-05-16 10:14:00,63.9,36.4,29.95,North,0,0.0,0.0,36,0.00,,---,0.00,VWS V13.01,2013-05-16 15:14:00,
2013-05-16 10:19:00,64.2,36.7,29.95,North,0,0.0,0.0,36,0.00,,---,0.00,VWS V13.01,2013-05-16 15:19:00,
2013-05-16 10:24:00,64.4,36.9,29.95,North,0,0.0,0.0,36,0.00,,---,0.00,VWS V13.01,2013-05-16 15:24:00,
2013-05-16 10:29:00,64.8,37.2,29.95,North,0,0.0,0.0,36,0.00,,---,0.00,VWS V13.01,2013-05-16 15:29:00,
2013-05-16 10:35:00,65.1,37.5,29.95,North,0,0.0,0.0,36,0.00,,---,0.00,VWS V13.01,2013-05-16 15:35:00,
2013-05-16 10:40:00,65.5,37.8,29.95,North,0,0.0,0.0,36,0.00,,---,0.00,VWS V13.01,2013-05-16 15:40:00,
2013-05-16 10:45:00,65.7,38.0,29.95,North,0,0.0,0.0,36,0.00,,---,0.00,VWS V13.01,2013-05-16 15:45:00,
2013-05-16 10:50:00,66.0,38.3,29.95,North,0,0.0,0.0,36,0.00,,---,0.00,VWS V13.01,2013-05-16 15:50:00,
2013-05-16 10:56:00,66.4,37.9,29.95,North,0,0.0,0.0,35,0.00,,---,0.00,VWS V13.01,2013-05-16 15:56:00,
2013-05-16 11:02:00,66.7,38.2,29.92,North,0,0.0,0.0,35,0.00,,---,0.00,VWS V13.01,2013-05-16 16:02:00,
2013-05-16 11:07:00,66.9,38.4,29.92,North,0,0.0,0.0,35,0.00,,---,0.00,VWS V13.01,2013-05-16 16:07:00,
2013-05-16 11:13:00,67.3,39.4,29.92,North,0,0.0,0.0,36,0.00,,---,0.00,VWS V13.01,2013-05-16 16:13:00,
2013-05-16 11:18:00,67.6,39.8,29.92,North,0,0.0,0.0,36,0.00,,---,0.00,VWS V13.01,2013-05-16 16:18:00,
2013-05-16 11:23:00,67.8,39.9,29.92,North,0,0.0,0.0,36,0.00,,---,0.00,VWS V13.01,2013-05-16 16:23:00,
2013-05-16 11:29:00,68.2,39.5,29.92,North,0,0.0,0.0,35,0.00,,---,0.00,VWS V13.01,2013-05-16 16:29:00,
2013-05-16 11:35:00,68.5,39.8,29.92,North,0,0.0,0.0,35,0.00,,---,0.00,VWS V13.01,2013-05-16 16:35:00,
2013-05-16 11:40:00,68.9,40.2,29.92,North,0,0.0,0.0,35,0.00,,---,0.00,VWS V13.01,2013-05-16 16:40:00,
2013-05-16 11:46:00,69.3,40.5,29.92,North,0,0.0,0.0,35,0.00,,---,0.00,VWS V13.01,2013-05-16 16:46:00,
2013-05-16 11:52:00,69.6,40.8,29.92,North,0,0.0,0.0,35,0.00,,---,0.00,VWS V13.01,2013-05-16 16:52:00,
2013-05-16 11:58:00,70.0,41.1,29.92,North,0,0.0,0.0,35,0.00,,---,0.00,VWS V13.01,2013-05-16 16:58:00,
2013-05-16 12:04:00,70.3,41.4,29.92,North,0,0.0,0.0,35,0.00,,---,0.00,VWS V13.01,2013-05-16 17:04:00,
2013-05-16 12:09:00,70.5,41.6,29.92,North,0,0.0,0.0,35,0.00,,---,0.00,VWS V13.01,2013-05-16 17:09:00,
2013-05-16 12:15:00,70.9,41.9,29.92,North,0,0.0,0.0,35,0.00,,---,0.00,VWS V13.01,2013-05-16 17:15:00,
2013-05-16 12:20:00,71.1,42.0,29.92,North,0,0.0,0.0,35,0.00,,---,0.00,VWS V13.01,2013-05-16 17:20:00,
2013-05-16 12:25:00,71.4,42.4,29.92,North,0,0.0,0.0,35,0.00,,---,0.00,VWS V13.01,2013-05-16 17:25:00,
2013-05-16 12:31:00,71.6,41.8,29.92,North,0,0.0,0.0,34,0.00,,---,0.00,VWS V13.01,2013-05-16 17:31:00,
2013-05-16 12:37:00,72.0,42.1,29.92,North,0,0.0,0.0,34,0.00,,---,0.00,VWS V13.01,2013-05-16 17:37:00,
2013-05-16 12:43:00,72.1,42.2,29.92,North,0,0.0,0.0,34,0.00,,---,0.00,VWS V13.01,2013-05-16 17:43:00,
2013-05-16 12:49:00,72.5,42.6,29.92,North,0,0.0,0.0,34,0.00,,---,0.00,VWS V13.01,2013-05-16 17:49:00,
2013-05-16 12:55:00,72.7,42.7,29.92,North,0,0.0,0.0,34,0.00,,---,0.00,VWS V13.01,2013-05-16 17:55:00,
2013-05-16 13:01:00,73.0,43.0,29.89,North,0,0.0,0.0,34,0.00,,---,0.00,VWS V13.01,2013-05-16 18:01:00,
2013-05-16 13:06:00,73.2,43.2,29.89,North,0,0.0,0.0,34,0.00,,---,0.00,VWS V13.01,2013-05-16 18:06:00,
2013-05-16 13:11:00,73.4,43.3,29.89,North,0,0.0,0.0,34,0.00,,---,0.00,VWS V13.01,2013-05-16 18:11:00,
2013-05-16 13:17:00,73.8,43.7,29.89,North,0,0.0,0.0,34,0.00,,---,0.00,VWS V13.01,2013-05-16 18:17:00,
2013-05-16 13:22:00,73.9,43.8,29.89,North,0,0.0,0.0,34,0.00,,---,0.00,VWS V13.01,2013-05-16 18:22:00,
2013-05-16 13:28:00,74.3,44.1,29.89,North,0,0.0,0.0,34,0.00,,---,0.00,VWS V13.01,2013-05-16 18:28:00,
2013-05-16 13:34:00,74.5,44.3,29.89,North,0,0.0,0.0,34,0.00,,---,0.00,VWS V13.01,2013-05-16 18:34:00,
2013-05-16 13:39:00,74.7,44.5,29.89,North,0,0.0,0.0,34,0.00,,---,0.00,VWS V13.01,2013-05-16 18:39:00,
2013-05-16 13:45:00,74.8,44.6,29.89,North,0,0.0,0.0,34,0.00,,---,0.00,VWS V13.01,2013-05-16 18:45:00,
2013-05-16 13:50:00,75.0,44.8,29.89,North,0,0.0,0.0,34,0.00,,---,0.00,VWS V13.01,2013-05-16 18:50:00,
2013-05-16 13:55:00,75.2,44.9,29.89,North,0,0.0,0.0,34,0.00,,---,0.00,VWS V13.01,2013-05-16 18:55:00,
2013-05-16 14:00:00,75.6,45.2,29.89,North,0,0.0,0.0,34,0.00,,---,0.00,VWS V13.01,2013-05-16 19:00:00,
2013-05-16 14:06:00,75.7,45.4,29.89,North,0,0.0,0.0,34,0.00,,---,0.00,VWS V13.01,2013-05-16 19:06:00,
2013-05-16 14:11:00,75.9,45.6,29.89,North,0,0.0,0.0,34,0.00,,---,0.00,VWS V13.01,2013-05-16 19:11:00,
2013-05-16 14:17:00,76.1,45.7,29.89,North,0,0.0,0.0,34,0.00,,---,0.00,VWS V13.01,2013-05-16 19:17:00,
2013-05-16 14:22:00,76.3,45.9,29.89,North,0,0.0,0.0,34,0.00,,---,0.00,VWS V13.01,2013-05-16 19:22:00,
2013-05-16 14:28:00,76.5,46.0,29.89,North,0,0.0,0.0,34,0.00,,---,0.00,VWS V13.01,2013-05-16 19:28:00,
2013-05-16 14:33:00,76.6,46.2,29.89,North,0,0.0,0.0,34,0.00,,---,0.00,VWS V13.01,2013-05-16 19:33:00,
2013-05-16 14:38:00,76.8,46.3,29.89,North,0,0.0,0.0,34,0.00,,---,0.00,VWS V13.01,2013-05-16 19:38:00,
2013-05-16 14:44:00,77.0,45.7,29.89,North,0,0.0,0.0,33,0.00,,---,0.00,VWS V13.01,2013-05-16 19:44:00,
2013-05-16 14:50:00,77.2,45.9,29.89,North,0,0.0,0.0,33,0.00,,---,0.00,VWS V13.01,2013-05-16 19:50:00,
2013-05-16 14:56:00,77.4,46.0,29.89,North,0,0.0,0.0,33,0.00,,---,0.00,VWS V13.01,2013-05-16 19:56:00,
2013-05-16 15:02:00,77.4,46.0,29.89,North,0,0.0,0.0,33,0.00,,---,0.00,VWS V13.01,2013-05-16 20:02:00,
2013-05-16 15:07:00,77.5,46.2,29.89,North,0,0.0,0.0,33,0.00,,---,0.00,VWS V13.01,2013-05-16 20:07:00,
2013-05-16 15:13:00,77.5,46.2,29.89,North,0,0.0,0.0,33,0.00,,---,0.00,VWS V13.01,2013-05-16 20:13:00,
2013-05-16 15:18:00,77.7,46.3,29.89,North,0,0.0,0.0,33,0.00,,---,0.00,VWS V13.01,2013-05-16 20:18:00,
2013-05-16 15:24:00,77.7,46.3,29.89,North,0,0.0,0.0,33,0.00,,---,0.00,VWS V13.01,2013-05-16 20:24:00,
2013-05-16 15:29:00,77.7,46.3,29.89,North,0,0.0,0.0,33,0.00,,---,0.00,VWS V13.01,2013-05-16 20:29:00,
2013-05-16 15:34:00,77.9,46.5,29.89,North,0,0.0,0.0,33,0.00,,---,0.00,VWS V13.01,2013-05-16 20:34:00,
2013-05-16 15:40:00,78.1,46.7,29.89,North,0,0.0,0.0,33,0.00,,---,0.00,VWS V13.01,2013-05-16 20:40:00,
2013-05-16 15:45:00,78.1,46.7,29.89,North,0,0.0,0.0,33,0.00,,---,0.00,VWS V13.01,2013-05-16 20:45:00,
2013-05-16 15:50:00,78.3,46.8,29.89,North,0,0.0,0.0,33,0.00,,---,0.00,VWS V13.01,2013-05-16 20:50:00,
2013-05-16 15:56:00,78.3,46.8,29.89,North,0,0.0,0.0,33,0.00,,---,0.00,VWS V13.01,2013-05-16 20:56:00,
2013-05-16 16:02:00,78.4,47.0,29.89,North,0,0.0,0.0,33,0.00,,---,0.00,VWS V13.01,2013-05-16 21:02:00,
2013-05-16 16:07:00,78.4,47.0,29.89,North,0,0.0,0.0,33,0.00,,---,0.00,VWS V13.01,2013-05-16 21:07:00,
2013-05-16 16:13:00,78.4,47.0,29.89,North,0,0.0,0.0,33,0.00,,---,0.00,VWS V13.01,2013-05-16 21:13:00,
2013-05-16 16:18:00,78.6,47.1,29.89,North,0,0.0,0.0,33,0.00,,---,0.00,VWS V13.01,2013-05-16 21:18:00,
2013-05-16 16:23:00,78.6,47.1,29.89,North,0,0.0,0.0,33,0.00,,---,0.00,VWS V13.01,2013-05-16 21:23:00,
2013-05-16 16:29:00,78.8,47.3,29.89,North,0,0.0,0.0,33,0.00,,---,0.00,VWS V13.01,2013-05-16 21:29:00,
2013-05-16 16:34:00,78.8,47.3,29.89,North,0,0.0,0.0,33,0.00,,---,0.00,VWS V13.01,2013-05-16 21:34:00,
2013-05-16 16:40:00,78.8,47.3,29.89,North,0,0.0,0.0,33,0.00,,---,0.00,VWS V13.01,2013-05-16 21:40:00,
2013-05-16 16:45:00,79.0,47.5,29.89,North,0,0.0,0.0,33,0.00,,---,0.00,VWS V13.01,2013-05-16 21:45:00,
2013-05-16 16:50:00,79.0,47.5,29.86,North,0,0.0,0.0,33,0.00,,---,0.00,VWS V13.01,2013-05-16 21:50:00,
2013-05-16 16:56:00,79.0,47.5,29.86,North,0,0.0,0.0,33,0.00,,---,0.00,VWS V13.01,2013-05-16 21:56:00,
2013-05-16 17:01:00,79.0,47.5,29.86,North,0,0.0,0.0,33,0.00,,---,0.00,VWS V13.01,2013-05-16 22:01:00,
2013-05-16 17:06:00,79.0,47.5,29.86,North,0,0.0,0.0,33,0.00,,---,0.00,VWS V13.01,2013-05-16 22:06:00,
2013-05-16 17:12:00,79.0,47.5,29.86,North,0,0.0,0.0,33,0.00,,---,0.00,VWS V13.01,2013-05-16 22:12:00,
2013-05-16 17:17:00,79.0,47.5,29.86,North,0,0.0,0.0,33,0.00,,---,0.00,VWS V13.01,2013-05-16 22:17:00,
2013-05-16 17:23:00,78.8,47.3,29.86,North,0,0.0,0.0,33,0.00,,---,0.00,VWS V13.01,2013-05-16 22:23:00,
2013-05-16 17:28:00,78.8,47.3,29.86,North,0,0.0,0.0,33,0.00,,---,0.00,VWS V13.01,2013-05-16 22:28:00,
2013-05-16 17:34:00,78.8,47.3,29.86,North,0,0.0,0.0,33,0.00,,---,0.00,VWS V13.01,2013-05-16 22:34:00,
2013-05-16 17:40:00,78.8,47.3,29.86,North,0,0.0,0.0,33,0.00,,---,0.00,VWS V13.01,2013-05-16 22:40:00,
2013-05-16 17:46:00,78.6,47.1,29.86,North,0,0.0,0.0,33,0.00,,---,0.00,VWS V13.01,2013-05-16 22:46:00,
2013-05-16 17:52:00,78.4,47.0,29.86,North,0,0.0,0.0,33,0.00,,---,0.00,VWS V13.01,2013-05-16 22:52:00,
2013-05-16 17:57:00,78.4,47.0,29.86,North,0,0.0,0.0,33,0.00,,---,0.00,VWS V13.01,2013-05-16 22:57:00,
2013-05-16 18:02:00,78.3,46.8,29.86,North,0,0.0,0.0,33,0.00,,---,0.00,VWS V13.01,2013-05-16 23:02:00,
2013-05-16 18:07:00,78.3,46.8,29.86,North,0,0.0,0.0,33,0.00,,---,0.00,VWS V13.01,2013-05-16 23:07:00,
2013-05-16 18:12:00,78.1,46.7,29.86,North,0,0.0,0.0,33,0.00,,---,0.00,VWS V13.01,2013-05-16 23:12:00,
2013-05-16 18:17:00,77.9,46.5,29.86,North,0,0.0,0.0,33,0.00,,---,0.00,VWS V13.01,2013-05-16 23:17:00,
2013-05-16 18:23:00,77.9,46.5,29.86,North,0,0.0,0.0,33,0.00,,---,0.00,VWS V13.01,2013-05-16 23:23:00,
2013-05-16 18:28:00,77.7,46.3,29.86,North,0,0.0,0.0,33,0.00,,---,0.00,VWS V13.01,2013-05-16 23:28:00,
2013-05-16 18:33:00,77.5,46.2,29.86,North,0,0.0,0.0,33,0.00,,---,0.00,VWS V13.01,2013-05-16 23:33:00,
2013-05-16 18:39:00,77.5,46.2,29.86,North,0,0.0,0.0,33,0.00,,---,0.00,VWS V13.01,2013-05-16 23:39:00,
2013-05-16 18:44:00,77.4,46.0,29.86,North,0,0.0,0.0,33,0.00,,---,0.00,VWS V13.01,2013-05-16 23:44:00,
2013-05-16 18:50:00,77.2,45.9,29.86,North,0,0.0,0.0,33,0.00,,---,0.00,VWS V13.01,2013-05-16 23:50:00,
2013-05-16 18:55:00,77.2,45.9,29.86,North,0,0.0,0.0,33,0.00,,---,0.00,VWS V13.01,2013-05-16 23:55:00,
2013-05-16 19:01:00,77.0,45.7,29.86,North,0,0.0,0.0,33,0.00,,---,0.00,VWS V13.01,2013-05-17 00:01:00,
2013-05-16 19:07:00,76.8,45.6,29.86,North,0,0.0,0.0,33,0.00,,---,0.00,VWS V13.01,2013-05-17 00:07:00,
2013-05-16 19:12:00,76.8,45.6,29.86,North,0,0.0,0.0,33,0.00,,---,0.00,VWS V13.01,2013-05-17 00:12:00,
2013-05-16 19:18:00,76.6,46.2,29.86,North,0,0.0,0.0,34,0.00,,---,0.00,VWS V13.01,2013-05-17 00:18:00,
2013-05-16 19:23:00,76.5,46.0,29.86,North,0,0.0,0.0,34,0.00,,---,0.00,VWS V13.01,2013-05-17 00:23:00,
2013-05-16 19:28:00,76.5,46.0,29.86,North,0,0.0,0.0,34,0.00,,---,0.00,VWS V13.01,2013-05-17 00:28:00,
2013-05-16 19:34:00,76.3,45.9,29.89,North,0,0.0,0.0,34,0.00,,---,0.00,VWS V13.01,2013-05-17 00:34:00,
2013-05-16 19:40:00,76.1,45.7,29.89,North,0,0.0,0.0,34,0.00,,---,0.00,VWS V13.01,2013-05-17 00:40:00,
2013-05-16 19:45:00,75.9,45.6,29.89,North,0,0.0,0.0,34,0.00,,---,0.00,VWS V13.01,2013-05-17 00:45:00,
2013-05-16 19:51:00,75.7,45.4,29.89,North,0,0.0,0.0,34,0.00,,---,0.00,VWS V13.01,2013-05-17 00:51:00,
2013-05-16 19:56:00,75.7,45.4,29.89,North,0,0.0,0.0,34,0.00,,---,0.00,VWS V13.01,2013-05-17 00:56:00,
2013-05-16 20:02:00,75.6,45.2,29.86,North,0,0.0,0.0,34,0.00,,---,0.00,VWS V13.01,2013-05-17 01:02:00,
2013-05-16 20:08:00,75.4,45.1,29.86,North,0,0.0,0.0,34,0.00,,---,0.00,VWS V13.01,2013-05-17 01:08:00,
2013-05-16 20:13:00,75.2,44.9,29.86,North,0,0.0,0.0,34,0.00,,---,0.00,VWS V13.01,2013-05-17 01:13:00,
2013-05-16 20:19:00,75.2,44.9,29.86,North,0,0.0,0.0,34,0.00,,---,0.00,VWS V13.01,2013-05-17 01:19:00,
2013-05-16 20:25:00,75.0,44.8,29.86,North,0,0.0,0.0,34,0.00,,---,0.00,VWS V13.01,2013-05-17 01:25:00,
2013-05-16 20:30:00,74.8,44.6,29.86,North,0,0.0,0.0,34,0.00,,---,0.00,VWS V13.01,2013-05-17 01:30:00,
2013-05-16 20:35:00,74.7,44.5,29.86,North,0,0.0,0.0,34,0.00,,---,0.00,VWS V13.01,2013-05-17 01:35:00,
2013-05-16 20:40:00,74.7,44.5,29.86,North,0,0.0,0.0,34,0.00,,---,0.00,VWS V13.01,2013-05-17 01:40:00,
2013-05-16 20:45:00,74.5,44.3,29.86,North,0,0.0,0.0,34,0.00,,---,0.00,VWS V13.01,2013-05-17 01:45:00,
2013-05-16 20:51:00,74.3,44.1,29.89,North,0,0.0,0.0,34,0.00,,---,0.00,VWS V13.01,2013-05-17 01:51:00,
2013-05-16 20:56:00,74.3,44.1,29.89,North,0,0.0,0.0,34,0.00,,---,0.00,VWS V13.01,2013-05-17 01:56:00,
2013-05-16 21:02:00,74.1,44.0,29.89,North,0,0.0,0.0,34,0.00,,---,0.00,VWS V13.01,2013-05-17 02:02:00,
2013-05-16 21:07:00,73.9,43.8,29.89,North,0,0.0,0.0,34,0.00,,---,0.00,VWS V13.01,2013-05-17 02:07:00,
2013-05-16 21:12:00,73.8,43.7,29.89,North,0,0.0,0.0,34,0.00,,---,0.00,VWS V13.01,2013-05-17 02:12:00,
2013-05-16 21:18:00,73.8,43.7,29.89,North,0,0.0,0.0,34,0.00,,---,0.00,VWS V13.01,2013-05-17 02:18:00,
2013-05-16 21:23:00,73.6,43.5,29.89,North,0,0.0,0.0,34,0.00,,---,0.00,VWS V13.01,2013-05-17 02:23:00,
2013-05-16 21:29:00,73.4,43.3,29.89,North,0,0.0,0.0,34,0.00,,---,0.00,VWS V13.01,2013-05-17 02:29:00,
2013-05-16 21:35:00,73.4,43.3,29.89,North,0,0.0,0.0,34,0.00,,---,0.00,VWS V13.01,2013-05-17 02:35:00,
2013-05-16 21:41:00,73.2,43.2,29.89,North,0,0.0,0.0,34,0.00,,---,0.00,VWS V13.01,2013-05-17 02:41:00,
2013-05-16 21:47:00,73.0,43.0,29.89,North,0,0.0,0.0,34,0.00,,---,0.00,VWS V13.01,2013-05-17 02:47:00,
2013-05-16 21:53:00,73.0,43.0,29.89,North,0,0.0,0.0,34,0.00,,---,0.00,VWS V13.01,2013-05-17 02:53:00,
2013-05-16 21:59:00,72.9,42.9,29.89,North,0,0.0,0.0,34,0.00,,---,0.00,VWS V13.01,2013-05-17 02:59:00,
2013-05-16 22:04:00,72.7,42.7,29.89,North,0,0.0,0.0,34,0.00,,---,0.00,VWS V13.01,2013-05-17 03:04:00,
2013-05-16 22:09:00,72.7,42.7,29.89,North,0,0.0,0.0,34,0.00,,---,0.00,VWS V13.01,2013-05-17 03:09:00,
2013-05-16 22:15:00,72.5,42.6,29.89,North,0,0.0,0.0,34,0.00,,---,0.00,VWS V13.01,2013-05-17 03:15:00,
2013-05-16 22:20:00,72.5,42.6,29.89,North,0,0.0,0.0,34,0.00,,---,0.00,VWS V13.01,2013-05-17 03:20:00,
2013-05-16 22:26:00,72.3,42.4,29.89,North,0,0.0,0.0,34,0.00,,---,0.00,VWS V13.01,2013-05-17 03:26:00,
2013-05-16 22:31:00,72.3,42.4,29.89,North,0,0.0,0.0,34,0.00,,---,0.00,VWS V13.01,2013-05-17 03:31:00,
2013-05-16 22:37:00,72.1,42.2,29.89,North,0,0.0,0.0,34,0.00,,---,0.00,VWS V13.01,2013-05-17 03:37:00,
2013-05-16 22:42:00,72.0,42.1,29.89,North,0,0.0,0.0,34,0.00,,---,0.00,VWS V13.01,2013-05-17 03:42:00,
2013-05-16 22:47:00,72.0,42.1,29.89,North,0,0.0,0.0,34,0.00,,---,0.00,VWS V13.01,2013-05-17 03:47:00,
2013-05-16 22:52:00,71.8,41.9,29.89,North,0,0.0,0.0,34,0.00,,---,0.00,VWS V13.01,2013-05-17 03:52:00,
2013-05-16 22:57:00,71.8,41.9,29.89,North,0,0.0,0.0,34,0.00,,---,0.00,VWS V13.01,2013-05-17 03:57:00,
2013-05-16 23:01:00,71.6,41.8,29.89,North,0,0.0,0.0,34,0.00,,---,0.00,VWS V13.01,2013-05-17 04:01:00,
2013-05-16 23:02:00,71.6,41.8,29.89,North,0,0.0,0.0,34,0.00,,---,0.00,VWS V13.01,2013-05-17 04:02:00,
2013-05-16 23:03:00,71.6,41.0,29.89,North,0,0.0,0.0,33,0.00,,---,0.00,VWS V13.01,2013-05-17 04:03:00,
2013-05-16 23:06:00,71.6,41.0,29.89,North,0,0.0,0.0,33,0.00,,---,0.00,VWS V13.01,2013-05-17 04:06:00,
2013-05-16 23:07:00,71.6,41.0,29.89,North,0,0.0,0.0,33,0.00,,---,0.00,VWS V13.01,2013-05-17 04:07:00,
2013-05-16 23:13:00,71.4,41.6,29.89,North,0,0.0,0.0,34,0.00,,---,0.00,VWS V13.01,2013-05-17 04:13:00,
2013-05-16 23:18:00,71.2,40.7,29.89,North,0,0.0,0.0,33,0.00,,---,0.00,VWS V13.01,2013-05-17 04:18:00,
2013-05-16 23:23:00,71.2,40.7,29.89,North,0,0.0,0.0,33,0.00,,---,0.00,VWS V13.01,2013-05-17 04:23:00,
2013-05-16 23:29:00,71.1,40.5,29.89,North,0,0.0,0.0,33,0.00,,---,0.00,VWS V13.01,2013-05-17 04:29:00,
2013-05-16 23:35:00,71.1,40.5,29.89,North,0,0.0,0.0,33,0.00,,---,0.00,VWS V13.01,2013-05-17 04:35:00,
2013-05-16 23:40:00,70.9,40.4,29.89,North,0,0.0,0.0,33,0.00,,---,0.00,VWS V13.01,2013-05-17 04:40:00,
2013-05-16 23:46:00,70.7,40.2,29.89,North,0,0.0,0.0,33,0.00,,---,0.00,VWS V13.01,2013-05-17 04:46:00,
2013-05-16 23:51:00,70.7,40.2,29.89,North,0,0.0,0.0,33,0.00,,---,0.00,VWS V13.01,2013-05-17 04:51:00,
2013-05-16 23:56:00,70.5,40.1,29.89,North,0,0.0,0.0,33,0.00,,---,0.00,VWS V13.01,2013-05-17 04:56:00,